Retour au catalogue

THORAD AGENA D DEB

ActifLEO
NORAD 4178·DEBRIS·🇺🇸 United States

Lancé Sep 30, 1969 depuis Vandenberg Space Force Base

Loading…

Prochains Passages (prochaines 24 heures)

TLE

FraisSource: Space-Track

Époque: Sep 14, 2026, 01:34 UTC

1 04178U 69082AW  26257.06536433  .00001257  00000-0  34862-3 0  9998
2 04178  69.8459 177.4014 0060059 167.5439 192.7195 14.47854509952087

Suivez THORAD AGENA D DEB en temps réel avec AllMySat

Download on the App Store